Back to catalog

STARLINK-35064

AliveCommunicationsSSO
NORAD 65531·PAYLOAD·🇺🇸 United States

Launched Sep 6, 2025 from Cape Canaveral Space Force Station

Loading…

Next Passes (next 24 hours)

TLE

FreshSource: CelesTrak SupGP

Epoch: Sep 14, 2026, 14:40 UTC

1 65531C 25200M   26257.61159722  .00074462  00000+0  23111-2 0  2573
2 65531  97.2845 324.0369 0000911 105.5397 335.2509 15.33406596    15

Track STARLINK-35064 in real time with AllMySat

Download on the App Store